Time,TemperatureF,DewpointF,PressureIn,WindDirection,WindDirectionDegrees,WindSpeedMPH,WindSpeedGustMPH,Humidity,HourlyPrecipIn,Conditions,Clouds,dailyrainin,SolarRadiationWatts/m^2,SoftwareType,DateUTC
2013-05-02 00:22:00,33.0,27.0,-100.00,NE,49,0.0,1.0,79,0.00,,,0.00,0.000000,,2013-05-02 08:22:00,
2013-05-02 00:32:00,33.0,27.0,-100.00,NE,49,0.0,1.0,79,0.00,,,0.00,0.000000,,2013-05-02 08:32:00,
2013-05-02 00:42:00,33.0,27.0,-100.00,NE,49,0.0,1.0,79,0.00,,,0.00,0.000000,,2013-05-02 08:42:00,
2013-05-02 00:52:00,32.0,27.0,-100.00,East,84,0.0,1.0,83,0.00,,,0.00,0.000000,,2013-05-02 08:52:00,
2013-05-02 01:21:00,32.0,27.0,-100.00,East,84,0.0,1.0,83,0.00,,,0.00,0.000000,,2013-05-02 09:21:00,
2013-05-02 01:32:00,32.0,27.0,-100.00,East,84,0.0,1.0,83,0.00,,,0.00,0.000000,,2013-05-02 09:32:00,
2013-05-02 01:42:00,32.0,27.0,-100.00,East,84,0.0,1.0,83,0.00,,,0.00,0.000000,,2013-05-02 09:42:00,
2013-05-02 01:52:00,32.0,28.0,-100.00,NE,46,0.0,1.0,86,0.00,,,0.00,0.000000,,2013-05-02 09:52:00,
2013-05-02 02:22:00,32.0,28.0,-100.00,NE,46,0.0,1.0,86,0.00,,,0.00,0.000000,,2013-05-02 10:22:00,
2013-05-02 02:32:00,32.0,28.0,-100.00,NE,46,0.0,1.0,86,0.00,,,0.00,0.000000,,2013-05-02 10:32:00,
2013-05-02 02:42:00,32.0,28.0,-100.00,NE,46,0.0,1.0,86,0.00,,,0.00,0.000000,,2013-05-02 10:42:00,
2013-05-02 02:52:00,33.0,29.0,-100.00,ESE,102,1.0,4.0,86,0.00,,,0.00,0.000000,,2013-05-02 10:52:00,
2013-05-02 03:22:00,33.0,29.0,-100.00,ESE,102,1.0,4.0,86,0.00,,,0.00,0.000000,,2013-05-02 11:22:00,
2013-05-02 03:32:00,33.0,29.0,-100.00,ESE,102,1.0,4.0,86,0.00,,,0.00,0.000000,,2013-05-02 11:32:00,
2013-05-02 03:42:00,33.0,29.0,-100.00,ESE,102,1.0,4.0,86,0.00,,,0.00,0.000000,,2013-05-02 11:42:00,
2013-05-02 03:52:00,34.0,32.0,-100.00,SSE,147,0.0,4.0,93,0.00,,,0.00,0.000000,,2013-05-02 11:52:00,
2013-05-02 04:21:00,34.0,32.0,-100.00,SSE,147,0.0,4.0,93,0.00,,,0.00,0.000000,,2013-05-02 12:21:00,
2013-05-02 04:32:00,34.0,32.0,-100.00,SSE,147,0.0,4.0,93,0.00,,,0.00,0.000000,,2013-05-02 12:32:00,
2013-05-02 04:42:00,34.0,32.0,-100.00,SSE,147,0.0,4.0,93,0.00,,,0.00,0.000000,,2013-05-02 12:42:00,
2013-05-02 04:52:00,33.0,32.0,-100.00,ENE,69,0.0,1.0,96,0.00,,,-99.99,0.000000,,2013-05-02 12:52:00,
2013-05-02 05:21:00,33.0,32.0,-100.00,ENE,69,0.0,1.0,96,0.00,,,-99.99,0.000000,,2013-05-02 13:21:00,
2013-05-02 05:31:00,33.0,32.0,-100.00,ENE,69,0.0,1.0,96,0.00,,,-99.99,0.000000,,2013-05-02 13:31:00,
2013-05-02 05:41:00,33.0,32.0,-100.00,ENE,69,0.0,1.0,96,0.00,,,-99.99,0.000000,,2013-05-02 13:41:00,
2013-05-02 05:52:00,32.0,32.0,-100.00,ENE,65,0.0,0.0,98,0.00,,,0.00,0.000000,,2013-05-02 13:52:00,
2013-05-02 06:22:00,32.0,32.0,-100.00,ENE,65,0.0,0.0,98,0.00,,,0.00,0.000000,,2013-05-02 14:22:00,
2013-05-02 06:32:00,32.0,32.0,-100.00,ENE,65,0.0,0.0,98,0.00,,,0.00,0.000000,,2013-05-02 14:32:00,
2013-05-02 06:42:00,32.0,32.0,-100.00,ENE,65,0.0,0.0,98,0.00,,,0.00,0.000000,,2013-05-02 14:42:00,
2013-05-02 07:22:00,33.0,33.0,-100.00,NE,52,0.0,0.0,99,0.01,,,0.01,8.000000,,2013-05-02 15:22:00,
2013-05-02 07:33:00,33.0,33.0,-100.00,NE,52,0.0,0.0,99,0.01,,,0.01,8.000000,,2013-05-02 15:33:00,
2013-05-02 07:43:00,33.0,33.0,-100.00,NE,52,0.0,0.0,99,0.01,,,0.01,8.000000,,2013-05-02 15:43:00,
2013-05-02 07:52:00,34.0,34.0,-100.00,NNE,13,0.0,0.0,99,0.00,,,0.01,34.000000,,2013-05-02 15:52:00,
2013-05-02 08:13:00,34.0,34.0,-100.00,NNE,13,0.0,0.0,99,0.00,,,0.01,34.000000,,2013-05-02 16:13:00,
2013-05-02 08:22:00,34.0,34.0,-100.00,NNE,13,0.0,0.0,99,0.00,,,0.01,34.000000,,2013-05-02 16:22:00,
2013-05-02 08:32:00,34.0,34.0,-100.00,NNE,13,0.0,0.0,99,0.00,,,0.01,34.000000,,2013-05-02 16:32:00,
2013-05-02 08:43:00,34.0,34.0,-100.00,NNE,13,0.0,0.0,99,0.00,,,0.01,34.000000,,2013-05-02 16:43:00,
2013-05-02 09:12:00,36.0,34.0,-100.00,NE,44,0.0,3.0,93,0.04,,,0.05,79.000000,,2013-05-02 17:12:00,
2013-05-02 09:22:00,36.0,34.0,-100.00,NE,44,0.0,3.0,93,0.04,,,0.05,79.000000,,2013-05-02 17:22:00,
2013-05-02 09:31:00,36.0,34.0,-100.00,NE,44,0.0,3.0,93,0.04,,,0.05,79.000000,,2013-05-02 17:31:00,
2013-05-02 09:42:00,36.0,34.0,-100.00,NE,44,0.0,3.0,93,0.04,,,0.05,79.000000,,2013-05-02 17:42:00,
2013-05-02 09:51:00,36.0,34.0,-100.00,NE,44,0.0,3.0,93,0.04,,,0.05,79.000000,,2013-05-02 17:51:00,
2013-05-02 10:21:00,38.0,35.0,-100.00,West,281,0.0,2.0,90,0.01,,,0.06,135.000000,,2013-05-02 18:21:00,
2013-05-02 10:31:00,38.0,35.0,-100.00,West,281,0.0,2.0,90,0.01,,,0.06,135.000000,,2013-05-02 18:31:00,
2013-05-02 10:41:00,38.0,35.0,-100.00,West,281,0.0,2.0,90,0.01,,,0.06,135.000000,,2013-05-02 18:41:00,
2013-05-02 10:51:00,38.0,35.0,-100.00,West,281,0.0,2.0,90,0.01,,,0.06,135.000000,,2013-05-02 18:51:00,
2013-05-02 10:52:00,40.0,37.0,-100.00,WNW,303,0.0,3.0,88,0.00,,,0.06,158.000000,,2013-05-02 18:52:00,
2013-05-02 11:21:00,40.0,37.0,-100.00,WNW,303,0.0,3.0,88,0.00,,,0.06,158.000000,,2013-05-02 19:21:00,
2013-05-02 11:31:00,40.0,37.0,-100.00,WNW,303,0.0,3.0,88,0.00,,,0.06,158.000000,,2013-05-02 19:31:00,
2013-05-02 11:41:00,40.0,37.0,-100.00,WNW,303,0.0,3.0,88,0.00,,,0.06,158.000000,,2013-05-02 19:41:00,
2013-05-02 11:52:00,42.0,38.0,-100.00,SW,214,0.0,3.0,86,0.01,,,0.07,197.000000,,2013-05-02 19:52:00,
2013-05-02 12:22:00,42.0,38.0,-100.00,SW,214,0.0,3.0,86,0.01,,,0.07,197.000000,,2013-05-02 20:22:00,
2013-05-02 12:32:00,42.0,38.0,-100.00,SW,214,0.0,3.0,86,0.01,,,0.07,197.000000,,2013-05-02 20:32:00,
2013-05-02 12:41:00,42.0,38.0,-100.00,SW,214,0.0,3.0,86,0.01,,,0.07,197.000000,,2013-05-02 20:41:00,
2013-05-02 12:52:00,44.0,39.0,-100.00,SW,232,1.0,4.0,83,0.01,,,0.08,242.000000,,2013-05-02 20:52:00,
2013-05-02 13:21:00,44.0,39.0,-100.00,SW,232,1.0,4.0,83,0.01,,,0.08,242.000000,,2013-05-02 21:21:00,
2013-05-02 13:33:00,44.0,39.0,-100.00,SW,232,1.0,4.0,83,0.01,,,0.08,242.000000,,2013-05-02 21:33:00,
2013-05-02 13:42:00,44.0,39.0,-100.00,SW,232,1.0,4.0,83,0.01,,,0.08,242.000000,,2013-05-02 21:42:00,
2013-05-02 13:52:00,45.0,39.0,-100.00,WSW,243,0.0,4.0,80,0.00,,,0.08,257.000000,,2013-05-02 21:52:00,
2013-05-02 14:12:00,45.0,39.0,-100.00,WSW,243,0.0,4.0,80,0.00,,,0.08,257.000000,,2013-05-02 22:12:00,
2013-05-02 14:22:00,45.0,39.0,-100.00,WSW,243,0.0,4.0,80,0.00,,,0.08,257.000000,,2013-05-02 22:22:00,
2013-05-02 14:32:00,45.0,39.0,-100.00,WSW,243,0.0,4.0,80,0.00,,,0.08,257.000000,,2013-05-02 22:32:00,
2013-05-02 14:42:00,45.0,39.0,-100.00,WSW,243,0.0,4.0,80,0.00,,,0.08,257.000000,,2013-05-02 22:42:00,
2013-05-02 15:11:00,44.0,38.0,-100.00,NW,312,0.0,3.0,80,0.01,,,0.09,238.000000,,2013-05-02 23:11:00,
2013-05-02 15:22:00,44.0,38.0,-100.00,NW,312,0.0,3.0,80,0.01,,,0.09,238.000000,,2013-05-02 23:22:00,
2013-05-02 15:32:00,44.0,38.0,-100.00,NW,312,0.0,3.0,80,0.01,,,0.09,238.000000,,2013-05-02 23:32:00,
2013-05-02 15:42:00,44.0,38.0,-100.00,NW,312,0.0,3.0,80,0.01,,,0.09,238.000000,,2013-05-02 23:42:00,
2013-05-02 15:51:00,44.0,38.0,-100.00,NW,312,0.0,3.0,80,0.01,,,0.09,238.000000,,2013-05-02 23:51:00,
2013-05-02 15:52:00,41.0,38.0,-100.00,South,191,1.0,6.0,90,0.02,,,0.11,146.000000,,2013-05-02 23:52:00,
2013-05-02 16:21:00,41.0,38.0,-100.00,South,191,1.0,6.0,90,0.02,,,0.11,146.000000,,2013-05-03 00:21:00,
2013-05-02 16:31:00,41.0,38.0,-100.00,South,191,1.0,6.0,90,0.02,,,0.11,146.000000,,2013-05-03 00:31:00,
2013-05-02 16:41:00,41.0,38.0,-100.00,South,191,1.0,6.0,90,0.02,,,0.11,146.000000,,2013-05-03 00:41:00,
2013-05-02 17:11:00,42.0,39.0,-100.00,SSW,193,2.0,5.0,88,0.01,,,0.12,197.000000,,2013-05-03 01:11:00,
2013-05-02 17:21:00,42.0,39.0,-100.00,SSW,193,2.0,5.0,88,0.01,,,0.12,197.000000,,2013-05-03 01:21:00,
2013-05-02 17:31:00,42.0,39.0,-100.00,SSW,193,2.0,5.0,88,0.01,,,0.12,197.000000,,2013-05-03 01:31:00,
2013-05-02 17:41:00,42.0,39.0,-100.00,SSW,193,2.0,5.0,88,0.01,,,0.12,197.000000,,2013-05-03 01:41:00,
2013-05-02 17:51:00,42.0,39.0,-100.00,SSW,193,2.0,5.0,88,0.01,,,0.12,197.000000,,2013-05-03 01:51:00,
2013-05-02 17:52:00,40.0,37.0,-100.00,SSW,207,2.0,6.0,90,0.02,,,0.14,133.000000,,2013-05-03 01:52:00,
2013-05-02 18:11:00,40.0,37.0,-100.00,SSW,207,2.0,6.0,90,0.02,,,0.14,133.000000,,2013-05-03 02:11:00,
2013-05-02 18:21:00,40.0,37.0,-100.00,SSW,207,2.0,6.0,90,0.02,,,0.14,133.000000,,2013-05-03 02:21:00,
2013-05-02 18:31:00,40.0,37.0,-100.00,SSW,207,2.0,6.0,90,0.02,,,0.14,133.000000,,2013-05-03 02:31:00,
2013-05-02 18:41:00,40.0,37.0,-100.00,SSW,207,2.0,6.0,90,0.02,,,0.14,133.000000,,2013-05-03 02:41:00,
2013-05-02 18:52:00,38.0,36.0,-100.00,West,268,0.0,4.0,93,0.03,,,0.17,76.000000,,2013-05-03 02:52:00,
2013-05-02 19:21:00,38.0,36.0,-100.00,West,268,0.0,4.0,93,0.03,,,0.17,76.000000,,2013-05-03 03:21:00,
2013-05-02 19:33:00,38.0,36.0,-100.00,West,268,0.0,4.0,93,0.03,,,0.17,76.000000,,2013-05-03 03:33:00,
2013-05-02 19:42:00,38.0,36.0,-100.00,West,268,0.0,4.0,93,0.03,,,0.17,76.000000,,2013-05-03 03:42:00,
2013-05-02 19:52:00,38.0,37.0,-100.00,North,359,0.0,0.0,95,0.05,,,0.22,54.000000,,2013-05-03 03:52:00,
2013-05-02 20:12:00,38.0,37.0,-100.00,North,359,0.0,0.0,95,0.05,,,0.22,54.000000,,2013-05-03 04:12:00,
2013-05-02 20:22:00,38.0,37.0,-100.00,North,359,0.0,0.0,95,0.05,,,0.22,54.000000,,2013-05-03 04:22:00,
2013-05-02 20:32:00,38.0,37.0,-100.00,North,359,0.0,0.0,95,0.05,,,0.22,54.000000,,2013-05-03 04:32:00,
2013-05-02 20:42:00,38.0,37.0,-100.00,North,359,0.0,0.0,95,0.05,,,0.22,54.000000,,2013-05-03 04:42:00,
2013-05-02 20:52:00,36.0,35.0,-100.00,North,359,0.0,0.0,96,0.02,,,0.24,36.000000,,2013-05-03 04:52:00,
2013-05-02 21:21:00,36.0,35.0,-100.00,North,359,0.0,0.0,96,0.02,,,0.24,36.000000,,2013-05-03 05:21:00,
2013-05-02 21:32:00,36.0,35.0,-100.00,North,359,0.0,0.0,96,0.02,,,0.24,36.000000,,2013-05-03 05:32:00,
2013-05-02 21:42:00,36.0,35.0,-100.00,North,359,0.0,0.0,96,0.02,,,0.24,36.000000,,2013-05-03 05:42:00,
2013-05-02 22:11:00,35.0,34.0,-100.00,North,355,0.0,3.0,98,0.00,,,0.24,9.000000,,2013-05-03 06:11:00,
2013-05-02 22:21:00,35.0,34.0,-100.00,North,355,0.0,3.0,98,0.00,,,0.24,9.000000,,2013-05-03 06:21:00,
2013-05-02 22:32:00,35.0,34.0,-100.00,North,355,0.0,3.0,98,0.00,,,0.24,9.000000,,2013-05-03 06:32:00,
2013-05-02 22:42:00,35.0,34.0,-100.00,North,355,0.0,3.0,98,0.00,,,0.24,9.000000,,2013-05-03 06:42:00,
2013-05-02 22:51:00,35.0,34.0,-100.00,North,355,0.0,3.0,98,0.00,,,0.24,9.000000,,2013-05-03 06:51:00,
2013-05-02 22:52:00,34.0,34.0,-100.00,North,349,1.0,4.0,99,0.00,,,0.24,0.000000,,2013-05-03 06:52:00,
2013-05-02 23:21:00,34.0,34.0,-100.00,North,349,1.0,4.0,99,0.00,,,0.24,0.000000,,2013-05-03 07:21:00,
2013-05-02 23:31:00,34.0,34.0,-100.00,North,349,1.0,4.0,99,0.00,,,0.24,0.000000,,2013-05-03 07:31:00,
2013-05-02 23:42:00,34.0,34.0,-100.00,North,349,1.0,4.0,99,0.00,,,0.24,0.000000,,2013-05-03 07:42:00,
2013-05-02 23:52:00,34.0,34.0,-100.00,North,10,2.0,5.0,99,0.00,,,0.24,0.000000,,2013-05-03 07:52:00,